Location: Bismarck
(46.7731°N, 100.8200°W)
Time: 06:30:44
(UTC-06:00)

ISS - Pass Details

Date: 02 December 2017
Orbit: 403 x 407 km, 51.6° (Epoch: 12 December)

Event Time Altitude Azimuth Distance (km) Brightness Sun altitude
Rises 18:40:02 0° 256° (WSW) 2,325 1.8 -17.1°
Reaches altitude 10° 18:42:09 10° 261° (W) 1,466 0.3 -17.4°
Maximum altitude 18:45:23 56° 341° (NNW) 492 -3.5 -18.0°
Enters shadow 18:45:56 48° 22° (NNE) 544 -3.5 -18.1°
